User: anonymous   Login
Location: Unspecified
(0.0000°N, 0.0000°E)
Time: 18:25:10
(UTC+00:00)
Language:

GOSAT - Orbit

View from above orbital plane
View from above orbital plane
View from above satellite
View from above satellite

Ground track
Ground track

The orbit data is extracted from the following two-line orbital elements,

1 33492U 09002A   14330.13362400 -.00000357  00000-0 -54549-4 0  1442
2 33492 098.0624 077.0900 0001627 079.7740 280.3616 14.67546730312831
Epoch (UTC): 26 November 2014 03:12:25
Eccentricity: 0.0001627
inclination: 98.0624°
perigee height: 668 km
apogee height: 670 km
right ascension of ascending node: 77.0900°
argument of perigee: 79.7740°
revolutions per day: 14.67546730
mean anomaly at epoch: 280.3616°
orbit number at epoch: 31283

The dashed part of the orbit path shows where the satellite is in the earth's shadow,  

DLR